RH
28 28 27 28 30 35 40 53 68 73 80 84 83 85 83 80 76 74 77 78 75 71 68 68 71 72 73 71 70 72 72 71 75 85 81 75 71 69 66 63 60 56 52
32 33 32 29 31 32 29 28 31 38 52 67 78 83 80 79 80 80 80 80 85 82 76 76 74 73 74 74 75 77 79 80 81 88 88 91 78 70 68 64 61 58 54
36 44 47 42 41 40 38 33 30 28 29 31 38 57 79 86 84 77 74 77 83 85 88 86 83 80 77 83 84 85 83 91 87 89 89 92 95 78 63 62 60 60 56
38 49 52 51 46 45 43 42 39 36 33 31 32 33 38 58 69 75 73 70 78 81 87 87 82 81 83 85 85 91 93 95 98 96 96 94 87 87 87 61 56 55 56
47 53 55 54 56 52 48 47 48 49 50 44 37 36 37 38 40 43 42 43 48 50 60 76 82 83 83 81 84 85 84 92 99 100 97 94 100 96 89 90 81 68 62
56 57 59 61 61 58 54 53 52 54 55 55 54 51 46 47 49 52 49 48 56 64 68 76 83 86 85 84 90 88 89 92 97 93 97 98 97 99 97 96 90 86 78
65 72 76 71 64 61 59 57 56 59 60 60 61 63 64 64 64 66 67 64 65 65 69 76 83 88 92 96 94 92 96 90 90 82 96 98 96 95 96 99 96 94 87
73 78 78 70 64 62 59 59 62 63 63 65 67 70 72 71 72 75 78 78 79 78 76 75 79 86 97 99 100 100 95 92 82 86 98 98 99 100 100 100 99 98 95
79 79 77 66 64 62 61 62 65 68 71 73 75 75 77 77 75 75 75 75 77 78 78 78 78 79 80 81 84 90 88 87 87 87 100 97 98 98 99 100 100 99 98
75 79 72 68 66 64 63 64 66 70 77 78 78 78 77 77 75 73 70 70 71 72 74 76 76 76 74 75 78 79 80 85 93 99 99 99 100 97 91 98 99 99 100
72 79 74 68 66 63 62 62 64 69 73 74 74 75 76 77 77 77 78 78 78 76 75 75 76 75 75 76 80 83 86 97 99 98 99 98 96 97 99 97 98 99 99
74 75 73 72 68 64 63 62 65 68 72 74 74 77 80 83 83 83 83 84 83 83 82 82 82 81 81 84 86 90 99 98 100 100 99 100 100 98 96 95 97 97 99
72 71 75 74 69 66 64 65 67 70 74 76 79 84 88 89 90 92 90 88 88 88 86 86 86 88 90 91 95 97 99 99 99 100 98 98 97 95 96 96 94 93 94
68 69 73 73 69 68 67 68 70 73 76 79 84 89 98 98 97 99 98 97 97 96 92 88 88 89 91 93 95 97 99 98 98 97 94 94 94 98 97 95 95 95 93
71 68 69 73 71 72 70 71 72 75 77 80 85 93 99 95 95 100 100 99 99 99 99 99 99 97 95 91 86 89 99 100 98 98 98 99 100 100 98 90 91 87 82
68 68 65 68 72 73 73 75 76 77 79 83 88 97 98 100 100 100 100 100 100 100 99 99 99 100 99 100 92 91 92 94 96 98 95 85 77 85 95 94 88 88 80
69 66 64 66 69 71 72 77 79 80 83 86 93 97 99 100 100 100 99 99 99 99 99 99 99 99 99 99 95 90 82 71 61 56 53 59 66 65 61 72 65 76 86
66 62 63 66 68 72 77 80 83 85 87 91 96 99 100 100 100 100 99 99 99 96 91 81 78 78 84 80 49 49 48 49 54 56 58 63 80 90 80 72 74 73 75
66 56 54 61 70 76 79 83 90 92 94 95 98 99 99 100 100 100 100 98 95 79 76 74 71 73 81 82 59 52 52 54 60 68 80 72 75 86 88 75 72 77 72
60 58 55 63 74 80 82 87 92 95 96 96 97 100 99 99 100 99 99 94 84 76 72 68 70 74 80 85 73 52 55 56 59 60 58 79 86 83 77 76 67 70 73
58 58 63 70 73 79 85 89 93 96 95 98 98 100 99 100 97 98 99 96 73 72 75 62 58 60 66 79 82 75 57 54 57 58 58 60 77 76 76 79 74 86 92
68 64 68 71 74 80 84 89 94 95 96 98 98 99 99 100 98 99 86 77 75 71 63 55 52 49 57 67 78 79 77 77 71 62 67 76 78 72 81 80 84 88 85
69 65 66 73 76 82 85 89 98 100 100 100 100 100 100 100 100 78 70 64 58 54 46 43 42 43 48 55 75 70 72 80 71 64 81 85 79 72 60 72 86 83 72
68 66 71 79 85 84 87 86 100 100 100 100 100 98 99 97 66 61 56 54 48 43 39 35 38 40 45 51 56 55 55 56 62 67 74 49 64 69 70 71 72 70 72
68 68 74 81 84 86 90 93 99 100 100 99 94 93 96 90 61 54 45 40 36 30 27 27 32 37 38 39 49 64 73 74 77 84 73 47 54 66 71 73 76 78 82
72 76 77 80 82 88 92 98 96 100 98 95 97 98 96 70 52 47 42 36 32 33 35 34 34 34 35 38 62 82 82 86 85 79 74 57 58 70 72 78 81 83 85
Wind_Speed
1 6 11 11 11 12 12 14 19 24 21 18 18 23 27 26 26 26 23 22 22 24 26 28 28 28 27 29 30 30 30 31 29 23 24 26 26 28 31 31 32 33 33
5 7 11 13 9 9 9 9 9 9 13 19 22 20 18 20 23 25 26 29 28 25 23 25 25 26 28 29 30 30 29 30 30 15 6 3 10 23 32 34 34 35 35
9 7 10 11 10 8 6 5 5 6 8 8 10 15 20 21 21 20 20 22 22 23 24 25 24 23 23 25 27 28 30 25 22 22 13 1 4 3 11 21 27 33 34
5 4 10 11 9 7 6 6 5 3 4 7 10 11 12 12 14 15 13 12 12 15 17 19 20 19 19 17 18 20 23 25 21 17 19 26 9 3 3 7 11 14 20
9 9 10 12 11 9 7 7 8 7 6 3 3 7 9 10 10 11 11 10 9 12 13 19 21 19 18 18 15 15 15 16 19 19 18 19 23 20 6 8 5 13 17
8 7 12 13 11 9 9 8 8 8 6 6 5 3 2 2 2 1 3 6 6 6 8 10 13 17 19 18 15 12 12 13 14 12 15 18 9 6 9 6 9 9 16
9 8 8 12 11 9 7 5 5 6 5 4 4 4 4 3 3 3 3 2 2 3 3 3 4 7 9 10 12 12 10 9 8 8 11 15 20 19 16 13 7 5 7
7 9 10 14 11 8 6 5 5 5 3 3 3 3 2 1 1 1 1 2 2 3 4 4 4 3 3 4 6 8 7 6 7 6 6 9 9 10 13 12 4 2 5
8 9 12 14 11 8 6 5 5 5 4 3 3 3 3 2 3 2 2 3 3 4 5 5 5 5 6 5 5 6 7 7 7 9 9 6 5 6 8 8 9 6 4
8 7 10 14 11 9 8 7 5 6 6 4 3 3 3 2 2 2 2 3 3 3 3 3 3 4 4 4 4 4 4 3 4 4 4 3 3 4 6 6 6 5 2
9 7 10 13 13 11 10 8 6 5 5 4 3 2 2 2 2 2 3 3 3 3 3 3 3 3 3 2 2 1 1 2 3 2 1 2 2 2 3 2 1 1 1
8 7 12 15 14 12 10 8 7 6 5 4 3 2 3 3 3 4 4 4 4 4 3 3 3 4 4 4 4 4 5 6 6 5 3 5 4 5 5 5 6 5 4
7 7 9 12 14 13 11 9 8 7 5 4 3 4 5 5 6 6 6 6 7 7 7 6 7 7 8 9 9 9 9 10 10 9 9 9 7 8 7 7 9 8 6
10 7 6 10 15 15 14 12 10 8 7 6 5 4 4 3 3 3 4 7 8 10 12 13 13 12 12 11 11 12 13 15 15 16 15 13 10 9 8 9 10 9 9
8 8 8 8 15 15 14 12 11 10 8 7 6 6 4 2 2 4 5 6 9 10 11 13 15 15 17 16 14 14 15 17 17 17 17 17 15 12 10 10 11 10 9
9 8 7 11 15 18 17 15 12 11 10 8 7 6 4 4 5 6 8 10 12 12 13 16 16 16 17 15 14 13 14 13 13 13 10 9 8 9 10 9 10 10 10
9 9 10 13 18 20 19 17 14 12 11 9 8 6 6 7 8 9 10 10 12 13 14 14 14 16 15 13 12 12 12 12 13 12 10 11 11 9 8 6 6 7 8
8 7 11 15 18 19 18 16 14 13 11 9 8 7 8 9 10 10 11 11 11 11 11 13 14 14 13 12 11 11 10 10 11 10 9 10 10 10 8 6 5 6 6
6 12 17 17 18 20 19 17 15 12 11 10 10 10 11 13 12 11 11 12 12 13 13 12 11 11 10 7 5 5 5 7 8 8 9 9 6 7 7 7 5 3 2
11 13 14 16 19 19 20 18 16 14 12 12 12 11 13 13 13 12 12 14 13 13 11 9 8 7 9 7 5 4 3 4 5 5 4 4 6 7 6 7 6 3 3
13 15 18 21 21 20 20 18 16 15 13 13 13 13 14 14 13 14 13 12 13 10 8 5 5 4 4 4 4 4 6 5 4 4 5 4 5 6 5 4 4 5 5
14 16 18 16 17 19 20 18 16 12 12 14 15 15 15 14 15 14 13 11 10 9 7 5 4 3 2 2 1 2 4 5 4 3 5 6 5 5 3 3 1 3 5
13 16 17 16 15 17 20 18 16 14 15 16 17 17 17 16 15 16 13 11 10 9 7 7 6 5 5 4 3 3 3 2 4 5 6 8 5 4 3 2 3 3 4
12 15 15 14 15 17 18 18 16 16 18 20 19 19 18 16 14 13 12 12 12 11 10 10 9 8 7 7 6 4 4 4 4 5 6 6 5 4 4 4 5 5 5
13 17 17 16 18 19 18 16 16 21 21 20 20 20 19 16 15 14 13 13 12 12 12 11 10 10 10 8 7 6 5 4 5 6 8 5 4 5 5 5 6 6 6
15 17 18 19 20 20 19 18 19 22 23 20 22 22 20 19 17 16 14 13 12 11 11 10 10 10 9 7 7 9 7 6 4 8 8 7 7 8 8 8 9 9 8
Wind_Direction
272 171 175 168 165 167 182 202 218 227 227 223 226 231 234 239 244 246 248 248 248 249 248 250 253 255 255 258 257 256 255 255 252 258 267 265 262 256 254 253 254 257 256
151 138 152 165 171 154 153 160 179 199 220 232 238 240 241 245 252 253 252 252 249 248 251 256 259 262 262 259 258 258 256 256 255 243 243 292 274 259 257 256 254 254 256
169 160 151 149 148 143 139 156 191 211 221 227 234 241 244 250 254 258 261 260 259 259 259 260 260 264 266 264 265 263 260 251 258 254 230 273 235 319 254 257 260 258 258
160 152 156 150 147 134 127 121 127 155 211 230 234 234 234 235 246 254 260 265 261 256 256 256 259 265 267 268 272 270 268 265 253 256 250 245 255 231 297 258 274 274 268
177 171 166 147 134 129 122 112 115 105 97 100 223 236 235 235 240 245 251 257 268 264 263 255 254 257 262 267 270 269 268 264 258 254 259 261 255 254 255 287 250 262 272
168 160 151 142 129 122 113 114 112 100 94 86 84 104 148 178 190 204 239 245 243 257 263 265 258 254 259 263 261 268 263 260 257 264 264 261 246 231 222 247 267 250 269
155 155 149 145 135 128 121 115 117 101 99 93 85 82 80 69 55 40 29 12 295 285 319 324 281 256 251 248 247 254 249 246 248 271 282 277 269 267 255 240 257 250 269
154 154 155 151 142 136 132 133 127 113 98 83 68 66 73 74 54 29 359 347 324 315 311 296 292 285 268 251 239 225 223 236 253 267 287 284 283 279 278 268 215 270 248
159 153 149 151 148 140 134 136 128 108 104 100 94 81 71 58 55 36 357 334 325 310 306 299 291 282 278 274 263 257 256 265 272 270 271 281 277 284 288 286 280 248 276
145 147 150 152 145 142 137 135 128 118 117 118 105 93 80 63 45 24 8 356 346 330 324 317 305 294 294 290 277 269 274 283 301 311 307 297 305 319 296 294 283 268 278
163 159 156 154 150 148 146 142 140 138 135 134 124 120 99 78 61 46 41 26 4 356 344 347 344 348 356 358 344 9 37 58 54 43 4 326 338 322 16 16 35 42 16
163 157 160 160 157 155 154 154 151 152 144 138 140 120 97 89 82 73 64 59 52 47 48 45 44 45 46 56 68 79 93 95 85 71 69 66 58 67 68 80 78 65 39
158 157 156 165 168 167 167 167 166 165 160 158 143 119 102 92 84 77 73 74 73 72 72 73 72 75 79 79 83 87 89 88 84 83 77 69 66 70 69 70 67 61 56
174 174 166 175 180 178 175 172 168 173 167 162 151 133 105 85 67 66 74 86 86 85 76 75 79 78 79 83 87 91 94 94 91 85 79 72 71 77 75 73 71 70 70
182 185 181 177 181 179 177 176 176 175 173 168 160 147 131 136 124 115 104 100 98 95 94 82 78 76 75 75 81 90 94 94 91 88 85 80 71 63 67 66 65 62 63
201 192 178 175 181 184 184 181 178 177 176 172 161 143 142 140 127 119 118 115 107 105 99 91 87 80 70 73 79 83 87 88 89 90 91 82 72 66 59 58 55 53 51
196 191 189 187 188 192 189 185 183 178 176 170 157 155 157 143 135 134 127 120 114 108 99 96 95 87 82 79 82 82 84 85 84 83 79 69 58 46 47 56 62 54 54
194 191 182 190 194 190 188 182 179 178 176 171 172 172 164 150 151 143 132 129 124 117 110 101 91 89 84 81 76 80 80 79 74 68 62 59 56 38 21 13 18 36 57
182 193 200 193 185 184 185 180 176 180 183 188 186 182 174 160 158 149 147 141 137 121 112 108 102 94 80 68 65 58 67 68 67 62 52 43 53 24 2 359 10 41 80
177 175 179 179 179 183 183 181 182 183 192 198 196 186 176 172 164 159 151 147 139 135 134 118 105 92 84 65 60 40 49 56 54 42 34 47 21 2 358 351 4 15 9
161 165 169 174 183 183 183 186 186 192 195 198 190 183 181 175 167 164 165 158 159 154 150 139 127 117 103 82 56 39 47 48 38 18 358 344 347 354 2 354 38 18 343
152 165 164 173 180 187 188 189 193 195 194 192 189 183 180 176 175 174 165 163 164 169 174 180 178 185 176 134 76 21 15 0 354 349 346 353 347 333 334 319 341 332 305
157 168 172 173 183 193 198 196 199 193 195 191 190 188 186 188 186 176 177 183 193 204 213 219 229 232 230 232 223 263 309 298 321 314 319 315 296 299 300 254 314 274 303
170 181 184 188 195 199 202 208 203 203 195 192 194 191 192 185 184 191 203 211 215 219 228 233 240 244 242 241 250 267 278 280 299 312 314 309 288 275 282 270 264 284 288
184 192 191 197 206 203 205 209 207 196 193 198 196 195 193 197 200 209 216 223 233 236 237 244 247 246 249 254 253 254 277 299 326 305 312 301 279 271 272 275 276 280 281
197 199 206 209 211 206 207 207 209 202 196 196 202 200 203 203 207 211 217 227 233 241 245 248 252 250 253 251 236 240 257 269 287 290 295 288 281 277 285 281 281 282 281